This is the latest recevied weather packets stored in our database for station/object VK4AB-13. If no packets are shown the sender has not sent any weather packets the latest 1 day(s).
| Time | Temp. | Humidity | Pressure | Rain* | Wind** | Luminosity | Snow |
|---|---|---|---|---|---|---|---|
| 1778043525 | 25.56° C | 69% | 1014.8 hPa | 0 mm | - | 169 W/m² | - |
| 1778043225 | 25.56° C | 68% | 1014.8 hPa | 0 mm | - | 141 W/m² | - |
| 1778042625 | 25.56° C | 69% | 1014.7 hPa | 0 mm | - | 454 W/m² | - |
| 1778042325 | 25.56° C | 68% | 1014.7 hPa | 0 mm | - | 512 W/m² | - |
| 1778042025 | 26.11° C | 68% | 1014.8 hPa | 0 mm | - | 547 W/m² | - |
| 1778041725 | 26.67° C | 67% | 1014.7 hPa | 0 mm | - | 163 W/m² | - |
| 1778041425 | 26.67° C | 67% | 1014.8 hPa | 0 mm | - | 279 W/m² | - |
| 1778041125 | 26.11° C | 67% | 1014.8 hPa | 0 mm | - | 547 W/m² | - |
| 1778040825 | 26.11° C | 66% | 1014.8 hPa | 0 mm | - | 624 W/m² | - |
| 1778040525 | 26.11° C | 66% | 1014.8 hPa | 0 mm | - | 364 W/m² | - |
| 1778040225 | 26.11° C | 66% | 1014.8 hPa | 0 mm | - | 227 W/m² | - |
| 1778039925 | 26.11° C | 65% | 1014.9 hPa | 0 mm | - | 250 W/m² | - |
| 1778039625 | 26.11° C | 65% | 1014.8 hPa | 0 mm | - | 643 W/m² | - |
| 1778039025 | 26.11° C | 66% | 1014.9 hPa | 0 mm | - | 316 W/m² | - |
| 1778038725 | 25.56° C | 66% | 1015 hPa | 0 mm | - | 308 W/m² | - |
| 1778037825 | 25.56° C | 66% | 1015.1 hPa | 0 mm | - | 181 W/m² | - |
| 1778036925 | 26.11° C | 66% | 1015.2 hPa | 0 mm | - | 142 W/m² | - |
| 1778036325 | 26.11° C | 65% | 1015.2 hPa | 0 mm | - | 160 W/m² | - |
| 1778036025 | 26.67° C | 65% | 1015.2 hPa | 0 mm | - | 211 W/m² | - |
| 1778035125 | 26.67° C | 64% | 1015.4 hPa | 0 mm | - | 218 W/m² | - |
| 1778034525 | 26.67° C | 64% | 1015.5 hPa | 0 mm | - | 274 W/m² | - |
| 1778033325 | 26.67° C | 65% | 1015.8 hPa | 0 mm | - | 283 W/m² | - |
| 1778032125 | 26.11° C | 66% | 1016.2 hPa | 0 mm | - | 287 W/m² | - |
| 1778031525 | 26.11° C | 66% | 1016.3 hPa | 0 mm | - | 190 W/m² | - |
| 1778031225 | 26.11° C | 66% | 1016.4 hPa | 0 mm | - | 137 W/m² | - |
* Rain latest hour (hover to see other rain measurements)
** Current wind speed in m/s (hover to see current wind gust speed)